{"data":{"norad_id":82873,"intl_designator":"","name":"UNKNOWN","alt_names":[],"object_type":"UNKNOWN","status":"UNKNOWN","operator":null,"country":null,"launch_date":null,"launch_site_code":null,"launch_vehicle":null,"mission":null,"orbit_class":"UNKNOWN","rcs_meters":null,"size_class":null,"mass_kg":null,"dimensions":null,"purposes":[],"wikipedia_slug":null,"has_3d_model":false,"image_url":null,"decayed_at":null,"tle_current":{"epoch":"2026-09-16T07:01:49.015488Z","epoch_age_seconds":385507,"freshness":"STALE","line1":"1 82873U          26259.29292842  .00002202  00000+0  93630-3 0  9999","line2":"2 82873  99.9917 196.8198 0036401 232.1341 127.6539 14.26174832660773","mean_motion":14.26174832,"eccentricity":0.0036401,"inclination_deg":99.9917,"raan_deg":196.8198,"arg_perigee_deg":232.1341,"mean_anomaly_deg":127.6539,"bstar":0.0009363,"rev_number":66077,"period_min":100.96938802241,"perigee_km":778.39970354649,"apogee_km":830.69106785085,"semimajor_km":7182.6823856987,"source":"CELESTRAK","updated_at":"2026-09-20T09:00:32.440400Z"}}}